Live-Position
3D-Globus wird geladen...
Über Starlink 1770
Group: 3 satellites
Beschreibung wird geladen...
Nächste Überflüge
Passes for default location (London). Set your location on the main map for personalized predictions.
Höhenverlauf
Loading altitude history...
No altitude history available
Zweizeiliger Elementsatz
1 46383U 20062BL 26103.81715938 .00035983 00000-0 30562-3 0 9995
2 46383 53.0393 142.8253 0006970 25.9271 334.2093 15.69277242310678
Epoch: 13. Apr. 2026 •
Age: 14 hours
Aktueller Status
Höhe 358.3 km
Geschwindigkeit 7.70 km/s
Subsatellitenpunkt -3.64°S,
154.47°E
Startdatum 3. Sept. 2020
Alter 5.6 years
Typ internet
Startgruppe
Falcon 9 •
Launch 11 •
21 satellites
Starlink 1654
46326
Starlink 1686 46328
Starlink 1695 46329
Starlink 1719 46331
Starlink 1727 46335
Starlink 1759 46340
Starlink 1762 46342
Starlink 1764 46343
Starlink 1547 46347
Starlink 1553 46348
Starlink 1646 46351
Starlink 1653 46352
Starlink 1656 46353
Starlink 1661 46355
Starlink 1665 46356
Starlink 1666 46357
Starlink 1707 46359
Starlink 1724 46375
Starlink 1742 46376
Starlink 1771 46384
Technische Details
Klassifizierung Payload
Masse 260.00 kg
Trockenmasse 248.00 kg
Gesamtmasse 260.00 kg
Länge 0.20 m
Durchmesser 2.80 m
Spannweite 9.00 m
Form Box + pan
Hersteller SPXS
Bus-Typ Starlink
Phasenstatus In Orbit
Besitzer/Staat SPXS/US
Most Searched
Loading...